N1ES KHPN-KFMY

Flight info

Callsign N1ES
Flight time 2h 34m
Altitude 40000
Route BIGGY Q75 SLOJO Q103 CYNTA SHFTY6
Aircraft CL60/M-SBDE1E2E3FGHIJ1J4J5J7M3RWXYZ/LB1V1D1

Departure

Time 2026-05-06 17:07
Airport Westchester County Airport (KHPN)

Arrival

Time 2026-05-06 19:41
Airport Page Field (KFMY)
Time Latitude Longitude Altitude Speed Heading
2026-05-06 16:42 41.06429 -73.71515 398 ft 0 kts 125°
2026-05-06 17:01 41.06453 -73.71493 398 ft 8 kts
2026-05-06 17:02 41.06528 -73.71489 397 ft 12 kts
2026-05-06 17:02 41.06592 -73.71559 397 ft 10 kts 302°
2026-05-06 17:02 41.06637 -73.71584 397 ft 9 kts
2026-05-06 17:02 41.06688 -73.71574 396 ft 6 kts
2026-05-06 17:03 41.06702 -73.71568 396 ft 2 kts 50°
2026-05-06 17:03 41.06703 -73.71558 396 ft 1 kts 97°
2026-05-06 17:03 41.06702 -73.71555 396 ft 0 kts 103°
2026-05-06 17:05 41.06702 -73.71553 396 ft 0 kts 103°
2026-05-06 17:06 41.06686 -73.71455 397 ft 50 kts 102°
2026-05-06 17:07 41.06531 -73.70538 394 ft 146 kts 104°
2026-05-06 17:07 41.06246 -73.69036 881 ft 183 kts 107°
2026-05-06 17:07 41.06012 -73.67291 1907 ft 200 kts 103°
2026-05-06 17:07 41.05827 -73.65329 2657 ft 217 kts 105°
2026-05-06 17:08 41.05250 -73.63425 2909 ft 234 kts 140°
2026-05-06 17:08 41.03827 -73.62326 2987 ft 240 kts 175°
2026-05-06 17:08 41.02224 -73.62633 3001 ft 230 kts 211°
2026-05-06 17:08 41.01136 -73.64203 3008 ft 232 kts 238°
2026-05-06 17:09 41.00352 -73.66102 3029 ft 242 kts 238°
2026-05-06 17:09 40.99484 -73.68187 4026 ft 261 kts 238°
2026-05-06 17:09 40.98659 -73.70161 5971 ft 245 kts 237°
2026-05-06 17:09 40.97877 -73.72025 7600 ft 238 kts 237°
2026-05-06 17:10 40.97083 -73.73864 9056 ft 236 kts 236°
2026-05-06 17:10 40.96269 -73.75735 10307 ft 241 kts 237°
2026-05-06 17:10 40.95438 -73.77640 11433 ft 249 kts 238°
2026-05-06 17:10 40.94546 -73.79684 12248 ft 267 kts 239°
2026-05-06 17:11 40.93552 -73.81958 12602 ft 300 kts 239°
2026-05-06 17:11 40.92482 -73.84403 13249 ft 318 kts 240°
2026-05-06 17:11 40.91341 -73.87006 14037 ft 330 kts 240°
2026-05-06 17:11 40.90203 -73.89600 15049 ft 333 kts 240°
2026-05-06 17:12 40.89031 -73.92266 16094 ft 334 kts 241°
2026-05-06 17:12 40.87858 -73.94933 17034 ft 336 kts 241°
2026-05-06 17:12 40.86681 -73.97605 17887 ft 336 kts 241°
2026-05-06 17:12 40.85485 -74.00317 18569 ft 340 kts 242°
2026-05-06 17:13 40.84287 -74.03033 19140 ft 346 kts 242°
2026-05-06 17:13 40.83055 -74.05820 19812 ft 349 kts 241°
2026-05-06 17:13 40.81818 -74.08614 20475 ft 351 kts 241°
2026-05-06 17:13 40.80573 -74.11423 21067 ft 355 kts 242°
2026-05-06 17:14 40.79306 -74.14281 21697 ft 358 kts 241°
2026-05-06 17:14 40.78062 -74.17083 22336 ft 359 kts 241°
2026-05-06 17:14 40.76792 -74.19941 22909 ft 362 kts 241°
2026-05-06 17:14 40.75500 -74.22843 23423 ft 366 kts 241°
2026-05-06 17:15 40.74201 -74.25761 24009 ft 368 kts 242°
2026-05-06 17:15 40.72907 -74.28662 24519 ft 371 kts 242°
2026-05-06 17:15 40.71586 -74.31624 25001 ft 374 kts 242°
2026-05-06 17:15 40.70270 -74.34570 25481 ft 377 kts 242°
2026-05-06 17:16 40.68930 -74.37564 25992 ft 378 kts 243°
2026-05-06 17:16 40.67585 -74.40567 26441 ft 380 kts 242°
2026-05-06 17:16 40.66251 -74.43546 26851 ft 383 kts 243°
2026-05-06 17:16 40.64892 -74.46572 27369 ft 383 kts 244°
2026-05-06 17:17 40.63540 -74.49585 27785 ft 384 kts 243°
2026-05-06 17:17 40.62165 -74.52644 28215 ft 385 kts 243°
2026-05-06 17:17 40.60798 -74.55685 28544 ft 387 kts 244°
2026-05-06 17:17 40.59430 -74.58718 28961 ft 387 kts 244°
2026-05-06 17:18 40.58039 -74.61807 29285 ft 389 kts 244°
2026-05-06 17:18 40.56652 -74.64879 29688 ft 388 kts 244°
2026-05-06 17:18 40.55274 -74.67927 30099 ft 388 kts 243°
2026-05-06 17:18 40.53909 -74.70943 30557 ft 386 kts 243°
2026-05-06 17:19 40.52527 -74.73993 31091 ft 382 kts 244°
2026-05-06 17:19 40.51179 -74.76962 31623 ft 378 kts 244°
2026-05-06 17:19 40.49851 -74.79887 32175 ft 374 kts 244°
2026-05-06 17:19 40.48523 -74.82809 32738 ft 369 kts 245°
2026-05-06 17:20 40.47207 -74.85703 33216 ft 366 kts 245°
2026-05-06 17:20 40.45903 -74.88567 33655 ft 364 kts 246°
2026-05-06 17:20 40.44616 -74.91394 34056 ft 363 kts 246°
2026-05-06 17:20 40.43322 -74.94233 34511 ft 360 kts 245°
2026-05-06 17:21 40.41969 -74.97041 34973 ft 361 kts 242°
2026-05-06 17:21 40.40335 -74.99583 35346 ft 367 kts 237°
2026-05-06 17:21 40.38590 -75.02022 35748 ft 365 kts 236°
2026-05-06 17:21 40.36852 -75.04453 36203 ft 362 kts 237°
2026-05-06 17:22 40.35148 -75.06838 36559 ft 360 kts 237°
2026-05-06 17:22 40.33418 -75.09261 36932 ft 359 kts 237°
2026-05-06 17:22 40.31713 -75.11648 37196 ft 359 kts 237°
2026-05-06 17:22 40.30001 -75.14042 37499 ft 359 kts 238°
2026-05-06 17:23 40.28308 -75.16409 37766 ft 358 kts 237°
2026-05-06 17:23 40.26591 -75.18805 38129 ft 355 kts 238°
2026-05-06 17:23 40.24918 -75.21137 38481 ft 353 kts 238°
2026-05-06 17:23 40.23231 -75.23491 38709 ft 352 kts 238°
2026-05-06 17:24 40.21556 -75.25825 38955 ft 351 kts 238°
2026-05-06 17:24 40.19896 -75.28138 39172 ft 351 kts 238°
2026-05-06 17:24 40.18216 -75.30477 39344 ft 351 kts 238°
2026-05-06 17:24 40.16550 -75.32793 39540 ft 350 kts 239°
2026-05-06 17:25 40.14869 -75.35133 39662 ft 350 kts 238°
2026-05-06 17:25 40.13189 -75.37465 39860 ft 350 kts 239°
2026-05-06 17:25 40.11515 -75.39793 39864 ft 352 kts 238°
2026-05-06 17:26 40.08136 -75.44484 39868 ft 357 kts 238°
2026-05-06 17:26 40.04700 -75.49244 39866 ft 360 kts 238°
2026-05-06 17:27 40.01226 -75.54047 39864 ft 362 kts 238°
2026-05-06 17:27 39.97776 -75.58806 39867 ft 362 kts 238°
2026-05-06 17:28 39.94291 -75.63608 39863 ft 362 kts 238°
2026-05-06 17:28 39.90910 -75.68430 39861 ft 358 kts 242°
2026-05-06 17:29 39.87740 -75.73509 39858 ft 357 kts 242°
2026-05-06 17:29 39.84609 -75.78515 39864 ft 357 kts 241°
2026-05-06 17:30 39.81464 -75.83536 39865 ft 356 kts 240°
2026-05-06 17:30 39.78322 -75.88545 39864 ft 358 kts 240°
2026-05-06 17:31 39.75161 -75.93575 39865 ft 359 kts 242°
2026-05-06 17:31 39.72010 -75.98581 39865 ft 360 kts 241°
2026-05-06 17:32 39.68825 -76.03632 39863 ft 361 kts 240°
2026-05-06 17:32 39.65630 -76.08691 39860 ft 361 kts 240°
2026-05-06 17:33 39.62435 -76.13741 39866 ft 361 kts 241°
2026-05-06 17:33 39.59254 -76.18737 39873 ft 362 kts 240°
2026-05-06 17:34 39.56008 -76.23734 39870 ft 363 kts 240°
2026-05-06 17:34 39.52728 -76.28774 39879 ft 364 kts 240°
2026-05-06 17:35 39.49474 -76.33769 39877 ft 365 kts 240°
2026-05-06 17:35 39.46167 -76.38802 39866 ft 367 kts 238°
2026-05-06 17:36 39.40769 -76.45914 39868 ft 368 kts 237°
2026-05-06 17:36 39.37178 -76.50598 39865 ft 369 kts 236°
2026-05-06 17:37 39.33546 -76.55331 39874 ft 369 kts 236°
2026-05-06 17:37 39.29944 -76.60021 39871 ft 369 kts 237°
2026-05-06 17:38 39.26336 -76.64714 39865 ft 370 kts 236°
2026-05-06 17:38 39.22681 -76.69463 39874 ft 372 kts 235°
2026-05-06 17:39 39.19038 -76.74189 39868 ft 373 kts 236°
2026-05-06 17:39 39.15370 -76.78939 39876 ft 373 kts 236°
2026-05-06 17:40 39.11702 -76.83684 39875 ft 374 kts 236°
2026-05-06 17:40 39.08041 -76.88414 39882 ft 375 kts 235°
2026-05-06 17:41 39.04335 -76.93192 39884 ft 376 kts 234°
2026-05-06 17:41 39.00671 -76.97907 39880 ft 374 kts 235°
2026-05-06 17:42 38.96994 -77.02642 39875 ft 374 kts 236°
2026-05-06 17:42 38.93301 -77.07394 39871 ft 375 kts 235°
2026-05-06 17:43 38.89623 -77.12120 39868 ft 377 kts 235°
2026-05-06 17:43 38.85900 -77.16894 39877 ft 376 kts 234°
2026-05-06 17:44 38.82213 -77.21616 39875 ft 375 kts 235°
2026-05-06 17:44 38.78533 -77.26321 39875 ft 375 kts 235°
2026-05-06 17:45 38.74822 -77.31059 39864 ft 375 kts 236°
2026-05-06 17:45 38.71047 -77.35680 39869 ft 379 kts 233°
2026-05-06 17:46 38.67115 -77.40219 39875 ft 379 kts 233°
2026-05-06 17:46 38.63189 -77.44747 39871 ft 379 kts 234°
2026-05-06 17:47 38.59277 -77.49253 39878 ft 378 kts 233°
2026-05-06 17:47 38.55401 -77.53715 39877 ft 379 kts 234°
2026-05-06 17:48 38.51479 -77.58227 39870 ft 380 kts 234°
2026-05-06 17:48 38.47562 -77.62720 39869 ft 379 kts 234°
2026-05-06 17:49 38.43619 -77.67242 39887 ft 381 kts 234°
2026-05-06 17:49 38.39681 -77.71754 39880 ft 383 kts 233°
2026-05-06 17:50 38.35696 -77.76307 39875 ft 382 kts 234°
2026-05-06 17:50 38.31755 -77.80802 39878 ft 381 kts 234°
2026-05-06 17:51 38.27806 -77.85302 39879 ft 381 kts 234°
2026-05-06 17:51 38.23855 -77.89799 39876 ft 381 kts 234°
2026-05-06 17:52 38.19879 -77.94319 39887 ft 381 kts 234°
2026-05-06 17:52 38.15931 -77.98799 39897 ft 382 kts 236°
2026-05-06 17:53 38.11942 -78.03318 39888 ft 383 kts 234°
2026-05-06 17:53 38.07984 -78.07793 39904 ft 381 kts 235°
2026-05-06 17:54 38.03995 -78.12300 39907 ft 383 kts 234°
2026-05-06 17:54 37.99921 -78.16705 39900 ft 390 kts 230°
2026-05-06 17:55 37.95575 -78.20850 39885 ft 392 kts 231°
2026-05-06 17:55 37.91227 -78.24996 39909 ft 392 kts 230°
2026-05-06 17:56 37.86863 -78.29153 39899 ft 391 kts 230°
2026-05-06 17:56 37.82476 -78.33328 39897 ft 392 kts 231°
2026-05-06 17:57 37.78121 -78.37464 39895 ft 389 kts 231°
2026-05-06 17:57 37.73803 -78.41563 39895 ft 389 kts 231°
2026-05-06 17:58 37.69469 -78.45675 39916 ft 391 kts 232°
2026-05-06 17:58 37.65107 -78.49810 39906 ft 394 kts 231°
2026-05-06 17:59 37.60710 -78.53964 39904 ft 392 kts 231°
2026-05-06 17:59 37.56329 -78.58097 39916 ft 391 kts 231°
2026-05-06 18:00 37.51959 -78.62219 39920 ft 393 kts 231°
2026-05-06 18:00 37.47568 -78.66356 39920 ft 397 kts 231°
2026-05-06 18:01 37.43112 -78.70544 39930 ft 398 kts 229°
2026-05-06 18:01 37.38704 -78.74676 39919 ft 396 kts 231°
2026-05-06 18:02 37.34282 -78.78821 39917 ft 395 kts 230°
2026-05-06 18:02 37.29861 -78.82955 39939 ft 396 kts 230°
2026-05-06 18:03 37.25470 -78.87057 39927 ft 395 kts 231°
2026-05-06 18:03 37.21032 -78.91196 39930 ft 394 kts 230°
2026-05-06 18:04 37.16663 -78.95264 39929 ft 392 kts 230°
2026-05-06 18:04 37.12283 -78.99337 39928 ft 391 kts 230°
2026-05-06 18:05 37.07896 -79.03415 39941 ft 393 kts 229°
2026-05-06 18:05 37.03478 -79.07516 39940 ft 394 kts 230°
2026-05-06 18:06 36.99070 -79.11595 39941 ft 393 kts 231°
2026-05-06 18:06 36.94650 -79.15685 39951 ft 394 kts 231°
2026-05-06 18:07 36.90255 -79.19744 39945 ft 396 kts 231°
2026-05-06 18:07 36.85809 -79.23845 39945 ft 397 kts 230°
2026-05-06 18:08 36.81328 -79.27970 39957 ft 398 kts 230°
2026-05-06 18:08 36.76898 -79.32040 39944 ft 397 kts 230°
2026-05-06 18:09 36.72453 -79.36118 39963 ft 396 kts 230°
2026-05-06 18:09 36.68019 -79.40183 39955 ft 396 kts 230°
2026-05-06 18:10 36.63551 -79.44272 39957 ft 396 kts 230°
2026-05-06 18:10 36.59111 -79.48330 39964 ft 396 kts 230°
2026-05-06 18:11 36.54682 -79.52373 39960 ft 397 kts 229°
2026-05-06 18:11 36.50215 -79.56443 39952 ft 397 kts 230°
2026-05-06 18:12 36.45741 -79.60515 39952 ft 398 kts 229°
2026-05-06 18:12 36.41288 -79.64559 39962 ft 396 kts 230°
2026-05-06 18:13 36.36826 -79.68607 39965 ft 398 kts 230°
2026-05-06 18:13 36.32365 -79.72652 39971 ft 400 kts 229°
2026-05-06 18:14 36.27834 -79.76750 39973 ft 401 kts 229°
2026-05-06 18:14 36.23333 -79.80815 39971 ft 402 kts 229°
2026-05-06 18:15 36.18830 -79.84876 39982 ft 402 kts 229°
2026-05-06 18:15 36.14304 -79.88950 39978 ft 401 kts 230°
2026-05-06 18:16 36.09777 -79.93019 39976 ft 401 kts 229°
2026-05-06 18:16 36.05198 -79.97003 39979 ft 411 kts 225°
2026-05-06 18:17 36.02583 -79.98639 39984 ft 426 kts 217°
2026-05-06 18:17 35.99813 -80.00024 39974 ft 428 kts 216°
2026-05-06 18:17 35.94290 -80.02763 39968 ft 430 kts 216°
2026-05-06 18:18 35.88720 -80.05521 39981 ft 432 kts 216°
2026-05-06 18:18 35.83111 -80.08291 39992 ft 432 kts 216°
2026-05-06 18:19 35.77562 -80.11025 39982 ft 431 kts 216°
2026-05-06 18:19 35.72006 -80.13759 39988 ft 430 kts 216°
2026-05-06 18:20 35.66456 -80.16482 39988 ft 428 kts 216°
2026-05-06 18:20 35.60892 -80.19212 39991 ft 428 kts 216°
2026-05-06 18:21 35.55338 -80.21933 39990 ft 428 kts 216°
2026-05-06 18:21 35.49799 -80.24642 40003 ft 429 kts 216°
2026-05-06 18:22 35.44259 -80.27348 40016 ft 431 kts 216°
2026-05-06 18:22 35.38662 -80.30076 40014 ft 431 kts 216°
2026-05-06 18:23 35.33073 -80.32796 39989 ft 432 kts 216°
2026-05-06 18:23 35.27451 -80.35525 39992 ft 431 kts 216°
2026-05-06 18:24 35.21886 -80.38223 39995 ft 429 kts 216°
2026-05-06 18:24 35.16326 -80.40917 39997 ft 430 kts 216°
2026-05-06 18:25 35.10766 -80.43607 40004 ft 431 kts 216°
2026-05-06 18:25 35.05169 -80.46310 40008 ft 432 kts 216°
2026-05-06 18:26 34.99600 -80.48996 40017 ft 432 kts 216°
2026-05-06 18:26 34.94011 -80.51685 40015 ft 431 kts 216°
2026-05-06 18:27 34.88412 -80.54376 40011 ft 430 kts 216°
2026-05-06 18:27 34.82846 -80.57047 40015 ft 430 kts 216°
2026-05-06 18:28 34.77266 -80.59723 40009 ft 431 kts 215°
2026-05-06 18:28 34.71681 -80.62395 40019 ft 431 kts 216°
2026-05-06 18:29 34.66065 -80.65080 40013 ft 431 kts 214°
2026-05-06 18:29 34.60273 -80.67436 40015 ft 440 kts 210°
2026-05-06 18:30 34.54397 -80.69610 40007 ft 439 kts 211°
2026-05-06 18:30 34.48549 -80.71776 39999 ft 439 kts 210°
2026-05-06 18:31 34.42704 -80.73940 39993 ft 440 kts 211°
2026-05-06 18:31 34.36818 -80.76119 39989 ft 442 kts 211°
2026-05-06 18:32 34.30927 -80.78297 39991 ft 442 kts 211°
2026-05-06 18:32 34.25009 -80.80482 39985 ft 443 kts 210°
2026-05-06 18:33 34.19130 -80.82648 39991 ft 442 kts 211°
2026-05-06 18:33 34.13247 -80.84813 40002 ft 441 kts 211°
2026-05-06 18:34 34.07328 -80.86992 40004 ft 444 kts 210°
2026-05-06 18:34 34.01438 -80.89156 40004 ft 444 kts 210°
2026-05-06 18:35 33.95488 -80.91338 40000 ft 445 kts 210°
2026-05-06 18:35 33.89542 -80.93515 40014 ft 445 kts 210°
2026-05-06 18:36 33.83602 -80.95686 40033 ft 446 kts 210°
2026-05-06 18:36 33.77642 -80.97864 40029 ft 445 kts 210°
2026-05-06 18:37 33.71712 -81.00026 40020 ft 445 kts 210°
2026-05-06 18:37 33.65777 -81.02187 40023 ft 445 kts 210°
2026-05-06 18:38 33.59830 -81.04350 40026 ft 445 kts 210°
2026-05-06 18:38 33.53849 -81.06522 40021 ft 445 kts 210°
2026-05-06 18:39 33.47935 -81.08665 40017 ft 445 kts 210°
2026-05-06 18:40 33.38957 -81.11914 40005 ft 444 kts 210°
2026-05-06 18:40 33.33027 -81.14056 40011 ft 444 kts 210°
2026-05-06 18:41 33.27088 -81.16198 40021 ft 443 kts 210°
2026-05-06 18:41 33.21157 -81.18336 40021 ft 444 kts 210°
2026-05-06 18:42 33.15200 -81.20480 40022 ft 445 kts 210°
2026-05-06 18:42 33.09250 -81.22617 40023 ft 445 kts 210°
2026-05-06 18:43 33.03305 -81.24748 40019 ft 444 kts 210°
2026-05-06 18:43 32.97355 -81.26880 40029 ft 444 kts 210°
2026-05-06 18:44 32.91399 -81.29010 40027 ft 445 kts 210°
2026-05-06 18:44 32.85421 -81.31145 40020 ft 444 kts 210°
2026-05-06 18:45 32.79463 -81.33270 40018 ft 444 kts 209°
2026-05-06 18:45 32.73566 -81.35369 40016 ft 443 kts 209°
2026-05-06 18:46 32.67627 -81.37481 40022 ft 443 kts 209°
2026-05-06 18:46 32.61653 -81.39603 40021 ft 443 kts 209°
2026-05-06 18:47 32.55719 -81.41708 40028 ft 444 kts 209°
2026-05-06 18:47 32.49740 -81.43826 40021 ft 444 kts 209°
2026-05-06 18:48 32.43810 -81.45923 40019 ft 444 kts 209°
2026-05-06 18:48 32.37887 -81.48013 40017 ft 442 kts 209°
2026-05-06 18:49 32.31955 -81.50105 40026 ft 442 kts 208°
2026-05-06 18:49 32.26045 -81.52187 40027 ft 443 kts 209°
2026-05-06 18:50 32.20100 -81.54279 40024 ft 443 kts 208°
2026-05-06 18:50 32.14176 -81.56359 40023 ft 443 kts 208°
2026-05-06 18:51 32.08254 -81.58436 40025 ft 442 kts 208°
2026-05-06 18:51 32.02307 -81.60518 40032 ft 442 kts 208°
2026-05-06 18:52 31.96375 -81.62593 40037 ft 443 kts 208°
2026-05-06 18:52 31.90422 -81.64676 40035 ft 448 kts 208°
2026-05-06 18:53 31.84371 -81.66791 40031 ft 454 kts 207°
2026-05-06 18:53 31.78224 -81.68936 40024 ft 461 kts 207°
2026-05-06 18:54 31.72003 -81.71103 40021 ft 468 kts 207°
2026-05-06 18:54 31.65687 -81.73297 40025 ft 472 kts 207°
2026-05-06 18:55 31.59376 -81.75484 40043 ft 474 kts 206°
2026-05-06 18:55 31.53014 -81.77685 40038 ft 473 kts 206°
2026-05-06 18:56 31.46652 -81.79886 40034 ft 475 kts 206°
2026-05-06 18:56 31.40284 -81.82084 40023 ft 475 kts 206°
2026-05-06 18:57 31.33905 -81.84283 40014 ft 475 kts 206°
2026-05-06 18:57 31.27564 -81.86467 40014 ft 474 kts 206°
2026-05-06 18:58 31.21162 -81.88669 40033 ft 475 kts 206°
2026-05-06 18:58 31.14826 -81.90845 40025 ft 475 kts 206°
2026-05-06 18:59 31.08438 -81.93036 40016 ft 475 kts 206°
2026-05-06 18:59 31.02086 -81.95213 40021 ft 476 kts 205°
2026-05-06 19:00 30.95673 -81.97406 40021 ft 475 kts 205°
2026-05-06 19:00 30.89319 -81.99577 40017 ft 476 kts 205°
2026-05-06 19:01 30.82896 -82.01769 40010 ft 476 kts 206°
2026-05-06 19:01 30.76520 -82.03941 40004 ft 476 kts 205°
2026-05-06 19:02 30.70106 -82.06123 40007 ft 477 kts 205°
2026-05-06 19:02 30.63709 -82.08295 40015 ft 478 kts 205°
2026-05-06 19:03 30.57049 -82.09680 40004 ft 493 kts 194°
2026-05-06 19:03 30.50169 -82.10317 40008 ft 494 kts 194°
2026-05-06 19:04 30.43284 -82.10957 40031 ft 494 kts 194°
2026-05-06 19:04 30.36394 -82.11597 40029 ft 495 kts 193°
2026-05-06 19:05 30.29493 -82.12238 40026 ft 494 kts 193°
2026-05-06 19:05 30.22562 -82.12878 40034 ft 495 kts 193°
2026-05-06 19:06 30.15532 -82.12610 40030 ft 512 kts 179°
2026-05-06 19:06 30.08458 -82.11200 40023 ft 514 kts 178°
2026-05-06 19:07 30.01366 -82.09772 40034 ft 515 kts 178°
2026-05-06 19:07 29.94271 -82.08344 40029 ft 516 kts 178°
2026-05-06 19:08 29.87190 -82.06920 40031 ft 515 kts 178°
2026-05-06 19:08 29.80067 -82.05489 40032 ft 516 kts 178°
2026-05-06 19:09 29.72955 -82.04063 40039 ft 516 kts 178°
2026-05-06 19:09 29.65888 -82.02647 40028 ft 516 kts 178°
2026-05-06 19:10 29.58758 -82.01221 40031 ft 517 kts 178°
2026-05-06 19:10 29.51633 -81.99798 40016 ft 517 kts 178°
2026-05-06 19:11 29.44531 -81.98380 40018 ft 517 kts 178°
2026-05-06 19:11 29.37412 -81.96962 40038 ft 517 kts 178°
2026-05-06 19:12 29.30297 -81.95551 40025 ft 517 kts 177°
2026-05-06 19:12 29.23192 -81.94144 40033 ft 517 kts 177°
2026-05-06 19:13 29.16051 -81.92733 40028 ft 517 kts 177°
2026-05-06 19:13 29.12499 -81.92033 39800 ft 522 kts 177°
2026-05-06 19:13 29.08869 -81.91318 39133 ft 523 kts 177°
2026-05-06 19:13 29.05305 -81.90612 38592 ft 514 kts 177°
2026-05-06 19:14 29.01793 -81.89916 37958 ft 508 kts 177°
2026-05-06 19:14 28.98317 -81.89230 37313 ft 502 kts 177°
2026-05-06 19:14 28.94850 -81.88546 36647 ft 497 kts 177°
2026-05-06 19:14 28.91461 -81.87878 35992 ft 492 kts 177°
2026-05-06 19:15 28.88055 -81.87208 35338 ft 487 kts 176°
2026-05-06 19:15 28.84745 -81.86557 34698 ft 483 kts 176°
2026-05-06 19:15 28.81431 -81.85906 34053 ft 482 kts 176°
2026-05-06 19:15 28.78070 -81.85248 33405 ft 486 kts 176°
2026-05-06 19:16 28.74731 -81.84587 32782 ft 489 kts 176°
2026-05-06 19:16 28.71359 -81.83920 32112 ft 490 kts 176°
2026-05-06 19:16 28.68004 -81.83254 31466 ft 488 kts 176°
2026-05-06 19:16 28.64678 -81.82594 30820 ft 482 kts 176°
2026-05-06 19:17 28.61369 -81.81937 30171 ft 477 kts 176°
2026-05-06 19:17 28.58093 -81.81287 29538 ft 472 kts 175°
2026-05-06 19:17 28.54865 -81.80593 28901 ft 469 kts 173°
2026-05-06 19:17 28.51702 -81.79707 28399 ft 463 kts 171°
2026-05-06 19:18 28.48572 -81.78808 28121 ft 459 kts 171°
2026-05-06 19:18 28.45471 -81.77923 27905 ft 461 kts 171°
2026-05-06 19:18 28.42349 -81.77032 27477 ft 462 kts 171°
2026-05-06 19:18 28.39216 -81.76138 27123 ft 458 kts 171°
2026-05-06 19:19 28.36137 -81.75259 26757 ft 455 kts 171°
2026-05-06 19:19 28.33045 -81.74377 26393 ft 452 kts 171°
2026-05-06 19:19 28.29991 -81.73506 26032 ft 450 kts 170°
2026-05-06 19:19 28.26948 -81.72639 25675 ft 447 kts 170°
2026-05-06 19:20 28.23920 -81.71777 25328 ft 444 kts 170°
2026-05-06 19:20 28.20900 -81.70918 24964 ft 442 kts 170°
2026-05-06 19:20 28.17926 -81.70073 24618 ft 440 kts 170°
2026-05-06 19:20 28.14916 -81.69218 24262 ft 437 kts 170°
2026-05-06 19:21 28.11994 -81.68388 23917 ft 435 kts 169°
2026-05-06 19:21 28.09028 -81.67547 23565 ft 433 kts 169°
2026-05-06 19:21 28.06077 -81.66975 23234 ft 424 kts 182°
2026-05-06 19:21 28.03169 -81.67263 22889 ft 412 kts 197°
2026-05-06 19:22 28.00406 -81.68042 22550 ft 408 kts 199°
2026-05-06 19:22 27.97627 -81.68845 22227 ft 406 kts 199°
2026-05-06 19:22 27.94902 -81.69630 21906 ft 404 kts 199°
2026-05-06 19:22 27.92160 -81.70419 21579 ft 403 kts 199°
2026-05-06 19:23 27.89431 -81.71204 21257 ft 401 kts 199°
2026-05-06 19:23 27.86709 -81.71987 20930 ft 400 kts 199°
2026-05-06 19:23 27.84014 -81.72762 20605 ft 398 kts 199°
2026-05-06 19:23 27.81335 -81.73533 20287 ft 397 kts 198°
2026-05-06 19:24 27.78648 -81.74305 19966 ft 396 kts 198°
2026-05-06 19:24 27.75939 -81.75083 19644 ft 395 kts 198°
2026-05-06 19:24 27.73280 -81.75847 19325 ft 394 kts 198°
2026-05-06 19:24 27.70556 -81.76513 19001 ft 395 kts 189°
2026-05-06 19:25 27.67781 -81.76557 18741 ft 395 kts 181°
2026-05-06 19:25 27.65041 -81.76478 18567 ft 394 kts 181°
2026-05-06 19:25 27.62257 -81.76406 18332 ft 394 kts 181°
2026-05-06 19:25 27.59494 -81.76160 18121 ft 395 kts 170°
2026-05-06 19:26 27.56880 -81.75161 17887 ft 396 kts 158°
2026-05-06 19:26 27.54328 -81.73917 17662 ft 394 kts 157°
2026-05-06 19:26 27.51805 -81.72695 17445 ft 393 kts 157°
2026-05-06 19:26 27.49251 -81.71461 17225 ft 391 kts 157°
2026-05-06 19:27 27.46724 -81.70241 17002 ft 390 kts 156°
2026-05-06 19:27 27.44198 -81.69021 16777 ft 388 kts 156°
2026-05-06 19:27 27.41688 -81.67810 16561 ft 387 kts 156°
2026-05-06 19:27 27.39205 -81.66613 16343 ft 386 kts 156°
2026-05-06 19:28 27.36694 -81.65402 16122 ft 385 kts 156°
2026-05-06 19:28 27.34225 -81.64214 15901 ft 383 kts 156°
2026-05-06 19:28 27.31744 -81.63019 15527 ft 385 kts 156°
2026-05-06 19:28 27.29273 -81.61830 14943 ft 381 kts 156°
2026-05-06 19:29 27.26833 -81.60657 14444 ft 374 kts 155°
2026-05-06 19:29 27.24454 -81.59514 14074 ft 369 kts 155°
2026-05-06 19:29 27.22078 -81.58372 13665 ft 369 kts 155°
2026-05-06 19:29 27.19726 -81.57243 13272 ft 367 kts 155°
2026-05-06 19:30 27.17349 -81.56102 12873 ft 364 kts 155°
2026-05-06 19:30 27.15039 -81.54994 12484 ft 357 kts 155°
2026-05-06 19:30 27.12750 -81.53897 12092 ft 349 kts 155°
2026-05-06 19:30 27.10554 -81.52844 11724 ft 341 kts 155°
2026-05-06 19:31 27.08358 -81.51791 11355 ft 333 kts 155°
2026-05-06 19:31 27.06227 -81.50768 10992 ft 326 kts 155°
2026-05-06 19:31 27.02107 -81.48792 10291 ft 314 kts 155°
2026-05-06 19:32 27.00150 -81.47723 9965 ft 306 kts 148°
2026-05-06 19:32 26.98305 -81.46556 9633 ft 301 kts 148°
2026-05-06 19:32 26.96455 -81.45387 9305 ft 299 kts 148°
2026-05-06 19:32 26.94645 -81.44244 8977 ft 298 kts 148°
2026-05-06 19:33 26.92835 -81.43101 8651 ft 296 kts 148°
2026-05-06 19:33 26.91016 -81.41987 8332 ft 294 kts 153°
2026-05-06 19:33 26.89058 -81.41369 7926 ft 296 kts 173°
2026-05-06 19:33 26.86984 -81.41547 7519 ft 294 kts 194°
2026-05-06 19:34 26.85137 -81.42499 7080 ft 293 kts 214°
2026-05-06 19:34 26.83695 -81.44118 6536 ft 294 kts 236°
2026-05-06 19:34 26.82747 -81.46054 6295 ft 285 kts 243°
2026-05-06 19:34 26.81839 -81.48041 5974 ft 285 kts 242°
2026-05-06 19:35 26.80932 -81.50014 5679 ft 284 kts 242°
2026-05-06 19:35 26.80024 -81.51984 5370 ft 284 kts 242°
2026-05-06 19:35 26.79127 -81.53931 5065 ft 283 kts 242°
2026-05-06 19:35 26.78219 -81.55898 4755 ft 281 kts 242°
2026-05-06 19:36 26.77327 -81.57830 4461 ft 279 kts 242°
2026-05-06 19:36 26.76429 -81.59775 4159 ft 279 kts 242°
2026-05-06 19:36 26.75539 -81.61701 3858 ft 277 kts 242°
2026-05-06 19:36 26.74659 -81.63603 3558 ft 276 kts 242°
2026-05-06 19:37 26.73775 -81.65514 3261 ft 274 kts 242°
2026-05-06 19:37 26.72901 -81.67402 2977 ft 274 kts 241°
2026-05-06 19:37 26.72010 -81.69324 2666 ft 272 kts 241°
2026-05-06 19:37 26.71068 -81.71107 2483 ft 262 kts 230°
2026-05-06 19:38 26.69863 -81.72584 2473 ft 241 kts 225°
2026-05-06 19:38 26.68761 -81.73898 2487 ft 226 kts 225°
2026-05-06 19:38 26.67694 -81.75200 2480 ft 216 kts 226°
2026-05-06 19:38 26.66727 -81.76389 2491 ft 194 kts 226°
2026-05-06 19:39 26.65850 -81.77467 2492 ft 184 kts 226°
2026-05-06 19:39 26.64992 -81.78521 2451 ft 185 kts 226°
2026-05-06 19:39 26.64107 -81.79610 1951 ft 186 kts 226°
2026-05-06 19:39 26.63260 -81.80654 1307 ft 176 kts 226°
2026-05-06 19:40 26.62514 -81.81576 1049 ft 145 kts 226°
2026-05-06 19:40 26.61856 -81.82386 839 ft 136 kts 226°
2026-05-06 19:40 26.61224 -81.83163 644 ft 130 kts 226°
2026-05-06 19:40 26.60621 -81.83903 475 ft 127 kts 226°
2026-05-06 19:41 26.60020 -81.84633 315 ft 125 kts 226°
2026-05-06 19:41 26.59432 -81.85344 151 ft 125 kts 226°
2026-05-06 19:41 26.58855 -81.86060 21 ft 113 kts 226°
2026-05-06 19:41 26.58459 -81.86546 21 ft 39 kts 227°
2026-05-06 19:42 26.58399 -81.86677 21 ft 17 kts 282°
2026-05-06 19:42 26.58454 -81.86789 21 ft 13 kts 352°
2026-05-06 19:42 26.58558 -81.86743 21 ft 18 kts 29°
2026-05-06 19:42 26.58636 -81.86729 21 ft 10 kts 288°
2026-05-06 19:43 26.58634 -81.86746 21 ft 0 kts 244°